Weather in Fort Lauderdale

United States     26°08′46″N   80°08′29″W
temp.,
°C
wind,
m/s
gust,
m/s
humid.,
%
clouds,
%
prec.,
mm/h
press.,
hPa
HPBL,
m
26 may, thu
thu2623:00+27ese576732 0.0 1019898
02:00+26ese566862 0.0 1018898
05:00+26ese566682 0.0 1018994
08:00+27ese686444 0.0 10191100
11:00+29ese675045 0.0 10191437
14:00+31se67435 0.0 10191656
17:00+30ese6653100 0.0 10171581
20:00+28ese566476 0.1 10171058
27 may, fri
fri2723:00+27ese566837 0.1 1018946
02:00+27se567011 0.1 1016864
05:00+26se477449 0.1 1016810
08:00+27se456823 1.0 1017965
11:00+30se555532 0.5 10171543
14:00+32se654723 0.7 10161903
17:00+31se555051 0.1 10141492
20:00+29se556055 0.6 1015926
28 may, sat
sat2823:00+28sse45630 0.1 1015759
02:00+27s336727 0.1 1014797
05:00+26s24701 0.1 1014608
08:00+27ssw23679 0.1 1014741
11:00+31sse334937 0.1 10141726
14:00+33se664256 0.1 10131975
17:00+31sse555182 0.4 10121410
20:00+30sse555344 0.6 10121130
29 may, sun
sun2923:00+28ssw235539 0.7 1014602
02:00+27wsw22560 0.8 1014193
05:00+26se12630 0.0 1014315
08:00+27sse23685 0.1 1015754
11:00+31ese32510 0.0 10151298
14:00+33ese644130 0.0 10151758
17:00+32ese664683 0.0 10141301
20:00+29e675927 0.0 1014938
30 may, mon
mon3023:00+28ese5664100 0.0 1017971
02:00+27ese4569100 0.0 1016884
05:00+27ese347299 0.1 1016672
08:00+27e457171 0.4 1017849
11:00+30e665594 0.2 10181441
14:00+31e665067 0.3 10171796
17:00+30e775415 0.3 10161575
20:00+28e78625 0.4 10161183